sat.trackr.live / text

‹ back to catalog

ONEWEB-0200

NORAD 48244 · 2021-031AL

PAYLOAD ACTIVE UNKNOWN

§ Identity

Operator
Country
UK
Launch date
2021-04-25
Launch site
VOSTO
Launch vehicle
Mass (kg)
RCS (m²)

Purposes: comms

External: N2YO · Heavens-Above · Gunter

§ Orbital elements

Epoch: 2026-09-19T17:42:57.336768Z

Period
109.55 min
Inclination
87.8904°
Eccentricity
0.0001695
Mean motion
13.14503602 rev/d
Perigee alt
1,204.5 km
Apogee alt
1,207.1 km
Semi-major
7,583.9 km
B*
-4.0353e-4
RAAN
270.8426°
Arg perigee
96.3224°
Mean anomaly
263.8099°
Rev number
26,065

§ Raw data

ONEWEB-02001 48244U 21031AL  26262.73816362 -.00000137  00000+0 -40353-3 0  99932 48244  87.8904 270.8426 0001695  96.3224 263.8099 13.14503602260657

JSON: /api/v1/satellites/48244 · /tle

For live sub-satellite position, see the globe view (requires WebGL).

§ Visibility from observer

Set your observer location to see the next 7 days of passes ≥ 10°. The values pass through the URL so the page stays shareable.

No JS? Fill the form by hand. The geolocation button needs JavaScript.